Weather Roundup
Issued by NWS Springfield, MO

Home | Current Version | Previous Version | Text Only | Print | Product List | Glossary On
Versions: 1 2 3 4 5 6 7 8 9 10 11 12 13 14 15 16 17 18 19 20 21 22 23 24 25 26 27 28 29 30 31 32 33 34 35 36 37 38 39 40 41 42 43 44 45 46 47 48 49 50
000
NZUS99 KSGF 301507
HRRSGF

HOURLY WEATHER
NATIONAL WEATHER SERVICE SPRINGFIELD MO
1000 AM CDT THU JUL 30 2015

......SGF CWA......

CITY           SKY/WX    TMP DP  RH WIND       PRES   REMARKS
SPRINGFIELD    MOSUNNY   78  62  57 E8        30.21S
JOPLIN         MOSUNNY   81  64  56 NE12      30.19S
WEST PLAINS    SUNNY     79  62  56 NE6       30.22S
ROLLA          SUNNY     80  60  50 NE5       30.20R
OSAGE BEACH    SUNNY     79  64  61 CALM      30.21S
BRANSON        MOSUNNY   77  61  57 SE6       30.23R

......SURROUNDING SGF CWA......

CITY           SKY/WX    TMP DP  RH WIND       PRES   REMARKS
CHANUTE        CLOUDY    79  65  62 E8        30.21R
PARSONS        CLOUDY   N/A N/A N/A MISG      30.21R
COFFEYVILLE    PTSUNNY   82  66  58 E8        30.18R
EMPORIA        CLOUDY    72  66  81 CALM      30.25R
GROVE OK       MOSUNNY   82  68  61 E7        30.18S
ROGERS AR      MOSUNNY   81  66  60 E9G16     30.21R
SILOAM SPRINGS SUNNY     82  66  57 E9        30.17R
HARRISON AR    SUNNY     77  64  64 E9        30.22S
NEAR YELLVILLE SUNNY     81  61  50 E5        30.18S

......KANSAS AND MISSOURI......

CITY           SKY/WX    TMP DP  RH WIND       PRES   REMARKS
KANSAS CTY INT PTSUNNY   78  65  63 W3        30.22S
DOWNTOWN KC    MOSUNNY   80  65  59 CALM      30.21S
COLUMBIA       SUNNY     81  62  52 CALM      30.20S
SEDALIA        SUNNY     83  61  47 CALM      30.22S
ST JOSEPH      SUNNY     76  68  76 CALM      30.22S
ST LOUIS       MOSUNNY   84  61  45 W3        30.17S
SPIRIT OF STL  SUNNY     80  65  59 CALM      30.16S
KIRKSVILLE     SUNNY     79  62  56 W8        30.21R
WICHITA        HVY RAIN  71  68  90 E7        30.26R FOG
TOPEKA         PTSUNNY   76  69  79 CALM      30.23S
OLATHE         PTSUNNY   79  61  53 SE3       30.22S

......TENNESSEE......

CITY           SKY/WX    TMP DP  RH WIND       PRES   REMARKS
MEMPHIS        SUNNY     85  65  51 NE12      30.10R
NASHVILLE      MOSUNNY   83  62  49 NE12      30.11R

......ARKANSAS.......

CITY           SKY/WX    TMP DP  RH WIND       PRES   REMARKS
FAYETTEVILLE   SUNNY     80  72  76 E5        30.18S
FT SMITH       SUNNY     86  72  62 E12       30.12S HX  92
LITTLE ROCK    SUNNY     86  69  56 NE12      30.12R HX  90

......OKLAHOMA.......

CITY           SKY/WX    TMP DP  RH WIND       PRES   REMARKS
TULSA          PTSUNNY   84  75  74 VRB3      30.13S HX  92
PONCA CITY     TSTM      71  69  93 N23G30    30.23R VSB 1/4
MCALESTER      SUNNY     87  75  67 VRB3      30.13S HX  96
OKLAHOMA CITY  SUNNY     87  71  58 SE6       30.15S HX  93

......IOWA............

CITY           SKY/WX    TMP DP  RH WIND       PRES   REMARKS
DES MOINES     MOSUNNY   80  58  46 W10       30.16R
QUAD CITIES    SUNNY     78  63  59 W7        30.11S

......ILLINOIS........

CITY           SKY/WX    TMP DP  RH WIND       PRES   REMARKS
QUINCY         SUNNY     79  62  56 W6        30.18R
CHICAGO        SUNNY     79  58  48 NW14      30.06S




USA.gov is the U.S. government's official web portal to all federal, state and local government web resources and services.